Location: Ocean City
(38.3360°N, 75.0850°W)
Time: 00:45:17
(UTC-04:00)

Max Valier Satellite - Pass Details

Date: 27 May 2019
Orbit: 491 x 508 km, 97.4° (Epoch: 24 June)

Event Time Altitude Azimuth Distance (km) Brightness Sun altitude
Exits shadow 20:51:38 - 104° (ESE) 1,893 ? -7.0°
Reaches altitude 10° 20:52:28 10° 94° (E) 1,709 ? -7.2°
Maximum altitude 20:54:08 13° 67° (ENE) 1,544 ? -7.4°
Drops below altitude 10° 20:55:49 10° 40° (NE) 1,719 ? -7.7°
Sets 20:58:54 0° 11° (N) 2,613 ? -8.2°
